sat.trackr.live / text

‹ back to catalog

STARLINK-36425

NORAD 67467 · 2026-008Y

PAYLOAD ACTIVE UNKNOWN

§ Identity

Operator
Country
US
Launch date
2026-01-14
Launch site
AFETR
Launch vehicle
Mass (kg)
RCS (m²)

Purposes: comms

External: N2YO · Heavens-Above · Gunter

§ Orbital elements

Epoch: 2026-09-19T12:34:39.851040Z

Period
94.27 min
Inclination
43.0009°
Eccentricity
0.0002508
Mean motion
15.27593877 rev/d
Perigee alt
481.3 km
Apogee alt
484.7 km
Semi-major
6,861.1 km
B*
5.7307e-4
RAAN
190.8228°
Arg perigee
267.8444°
Mean anomaly
92.2120°
Rev number
3,921

§ Raw data

STARLINK-364251 67467U 26008Y   26262.52407235  .00015548  00000+0  57307-3 0  99992 67467  43.0009 190.8228 0002508 267.8444  92.2120 15.27593877 39213

JSON: /api/v1/satellites/67467 · /tle

For live sub-satellite position, see the globe view (requires WebGL).

§ Visibility from observer

Set your observer location to see the next 7 days of passes ≥ 10°. The values pass through the URL so the page stays shareable.

No JS? Fill the form by hand. The geolocation button needs JavaScript.